Wind_Speed
12 12 13 14 14 14 14 14 13 14 16 15 15 16 16 16 16 17 18 19 19 20 20 21 22 22 22 22 21 22 22 23 23 24 25 25 24 24 24 25 25 25 25 24
12 13 13 14 14 14 15 14 14 16 16 15 15 15 16 16 16 18 19 20 20 20 21 22 23 23 22 21 21 22 23 24 24 25 25 25 24 24 25 25 25 25 24 24
13 14 14 14 14 13 14 15 15 15 15 15 15 15 15 16 17 18 19 20 21 21 21 22 22 22 21 22 23 23 24 24 24 25 25 25 25 25 24 24 24 24 24 23
12 13 13 13 13 12 13 14 15 15 15 14 15 15 16 17 18 19 19 20 21 22 22 22 22 22 23 24 24 24 24 24 24 24 24 24 25 24 24 24 23 23 24 23
12 13 12 12 11 12 12 13 14 14 14 14 14 14 16 18 18 19 20 20 21 22 22 21 21 22 24 24 25 25 25 25 25 25 24 24 24 24 24 24 23 22 22 21
11 11 11 11 11 11 12 12 12 12 12 13 14 15 16 18 19 20 20 20 21 22 22 22 22 23 24 24 25 26 26 26 25 24 24 25 24 24 24 24 23 22 21 21
10 10 10 10 11 12 12 11 11 11 12 14 16 16 17 18 19 19 19 20 21 23 23 23 23 23 23 24 25 26 26 25 24 25 24 24 24 24 24 23 23 22 21 22
10 10 11 11 11 12 12 11 11 12 12 13 16 17 18 19 19 19 20 21 22 23 23 24 23 23 24 24 24 25 25 24 24 24 24 24 24 23 23 23 22 22 21 21
10 11 12 12 12 12 12 12 12 13 13 14 15 18 18 19 20 21 21 22 23 24 23 23 23 24 25 24 24 24 25 23 23 23 23 23 23 22 22 21 21 21 21 21
11 11 13 13 13 12 12 13 13 13 14 15 15 17 18 20 21 21 22 23 24 24 24 24 24 25 25 25 26 25 24 23 23 23 23 23 23 22 22 21 21 21 21 21
12 12 13 13 13 13 14 14 14 14 15 15 16 17 18 21 22 23 23 24 25 25 24 24 25 25 25 26 25 25 24 24 23 23 23 23 22 22 21 22 22 22 22 22
12 12 13 13 14 14 15 15 15 15 16 17 17 19 20 22 23 23 24 24 24 24 24 24 24 25 26 26 25 25 25 24 24 24 23 22 22 21 21 21 21 21 21 21
12 12 12 13 15 15 15 15 16 16 17 17 18 20 22 23 23 23 23 24 24 24 24 24 25 25 25 25 25 25 25 24 24 24 23 22 21 21 21 21 21 20 20 21
12 13 12 13 14 16 16 16 16 17 17 18 20 21 22 23 24 24 24 24 24 23 23 24 24 24 24 25 25 25 25 24 24 24 23 22 22 22 21 21 21 20 21 21
13 13 13 14 14 15 16 17 17 18 18 19 20 21 22 22 23 23 23 24 24 24 24 25 25 24 24 25 24 24 24 23 23 23 22 22 22 21 21 21 22 21 21 21
14 15 15 16 16 16 18 18 18 18 19 20 21 21 21 21 22 23 23 23 24 24 25 25 25 25 24 23 24 24 24 24 23 22 21 21 21 21 22 22 22 22 21 20
15 16 16 17 17 18 19 19 19 19 19 20 20 21 21 21 23 23 23 23 24 25 25 26 25 24 24 24 24 23 24 24 22 21 21 20 20 20 22 22 22 20 20 19
17 17 17 18 19 19 19 19 19 19 19 20 21 21 22 22 23 23 24 24 24 25 25 24 24 23 24 24 24 24 24 23 23 22 22 21 21 22 23 22 21 20 19 19
17 17 18 18 18 19 20 20 20 20 20 20 21 22 22 22 23 24 24 24 24 25 24 24 23 23 23 23 24 24 24 23 23 23 22 22 22 23 22 22 21 20 19 18
18 18 19 19 19 20 21 21 21 21 21 22 22 22 23 23 24 24 25 25 25 25 25 24 23 23 23 23 23 24 24 23 23 23 23 22 23 22 22 21 21 20 19 18
19 19 19 20 20 22 22 21 21 21 23 23 23 23 24 24 25 25 25 25 25 25 24 24 24 24 24 24 24 24 23 23 23 23 23 23 23 23 22 21 20 19 18 17
21 21 21 20 21 23 23 22 22 22 23 23 24 24 25 25 25 26 26 25 25 25 24 24 24 24 24 24 24 24 24 24 23 23 23 23 22 22 21 20 19 18 17 15
22 22 22 22 23 23 23 22 22 22 23 24 24 25 25 25 25 25 26 25 25 25 25 25 25 24 24 24 24 24 24 23 23 23 23 22 21 21 20 19 18 17 16 15
23 23 23 23 23 23 23 23 23 23 24 24 25 25 25 25 25 25 26 25 25 25 25 25 24 24 24 24 24 24 23 23 23 23 23 23 22 21 19 18 18 18 17 16
24 24 24 24 24 24 23 23 24 24 24 25 25 25 25 25 25 25 25 25 25 25 25 25 24 24 24 24 24 24 24 24 24 24 24 23 22 20 19 18 19 18 17 17
25 25 25 24 24 24 24 24 24 24 24 25 25 25 24 24 24 25 25 25 25 25 25 24 24 25 24 24 24 24 24 25 25 25 24 23 21 19 18 19 18 18 17 17
Wind_Direction
245 247 251 257 260 261 266 273 279 284 287 289 290 290 293 291 292 295 298 301 302 303 306 306 307 307 307 304 302 302 301 299 300 302 302 301 301 300 299 295 289 287 286 283
244 246 251 259 262 263 266 272 279 286 288 289 293 294 297 298 295 297 300 301 299 303 306 307 307 307 307 305 304 305 304 302 301 303 303 302 301 299 298 297 293 288 285 283
238 244 250 257 262 264 268 274 279 284 287 289 295 297 296 297 298 299 302 303 303 304 307 308 306 306 307 307 307 306 306 304 303 303 303 302 301 301 300 297 294 290 286 284
242 246 251 255 260 267 270 276 278 283 291 297 296 298 300 300 301 302 304 306 306 306 309 309 307 307 308 307 307 306 306 305 304 304 304 303 302 300 299 297 297 292 287 284
241 246 251 254 260 269 274 279 279 284 290 294 296 296 301 305 304 305 306 308 307 308 307 307 307 308 309 307 306 305 306 307 306 305 306 305 303 302 299 296 296 293 289 286
239 247 252 257 265 271 277 280 285 290 296 296 297 300 302 306 306 308 309 309 310 311 310 309 308 309 309 309 309 309 308 307 306 305 306 306 304 302 300 298 296 293 290 287
246 252 257 260 269 274 280 288 298 297 292 294 299 300 303 305 307 309 311 312 312 313 313 312 311 311 312 312 312 312 312 310 307 306 307 307 306 303 300 299 297 294 291 289
248 259 264 266 270 274 281 286 288 290 290 294 299 301 305 308 309 310 312 313 313 313 313 313 313 313 313 314 314 314 314 311 309 308 308 308 308 305 301 297 296 293 291 290
250 258 266 270 271 274 284 286 287 290 295 299 301 305 306 309 310 312 312 311 312 313 313 313 315 314 314 316 317 317 317 313 311 311 309 309 310 308 304 301 299 296 294 293
252 260 268 271 271 275 281 287 288 291 294 296 300 306 311 313 313 312 311 311 311 312 312 313 314 315 316 316 315 316 316 314 312 311 309 308 308 308 307 307 304 301 297 296
259 263 268 271 271 278 283 285 286 289 291 294 299 302 306 310 313 313 312 313 313 312 313 314 316 317 317 317 318 318 316 314 312 310 310 310 310 310 308 307 304 303 299 297
263 267 273 277 281 282 284 285 287 289 292 294 297 299 304 309 312 313 313 314 314 313 313 314 316 318 318 318 318 318 317 316 314 311 310 311 312 310 309 307 305 305 302 298
268 272 278 285 287 286 283 284 286 288 291 295 298 301 306 310 312 312 312 314 315 314 315 315 315 318 318 318 318 318 317 316 315 313 311 311 310 308 308 308 306 305 304 300
271 275 277 280 284 289 290 290 290 290 292 295 298 300 303 307 310 311 312 314 317 318 319 319 318 318 318 318 320 320 320 318 316 315 312 310 308 308 309 309 307 306 305 302
273 276 279 281 283 286 289 291 291 291 292 294 297 300 302 306 310 313 315 317 318 318 319 320 319 317 318 317 318 320 320 318 317 315 312 310 309 308 310 310 308 307 305 303
271 276 281 282 284 285 287 289 291 292 292 295 298 300 302 307 311 314 315 317 316 317 318 320 318 317 317 318 320 320 318 316 315 314 312 310 309 309 312 312 310 309 306 303
273 277 282 283 284 286 287 289 290 292 294 297 299 301 305 307 311 314 315 316 316 317 318 319 318 317 317 317 318 318 317 316 315 315 313 311 312 314 315 315 313 310 306 302
274 277 281 284 286 287 288 289 292 294 296 297 299 302 306 308 312 315 316 314 315 316 317 317 316 315 316 316 317 316 317 318 317 316 314 312 312 314 316 315 312 308 305 300
274 278 281 286 289 290 290 291 293 295 296 298 299 301 305 307 311 313 315 316 316 316 316 316 315 315 316 317 317 317 317 317 317 316 314 314 315 317 316 313 310 309 307 303
276 278 281 285 287 289 291 293 293 294 295 298 299 301 305 307 309 311 313 315 316 316 317 316 315 316 318 319 319 319 318 318 317 315 314 313 315 317 317 315 313 311 310 308
277 278 279 282 285 286 289 292 292 292 295 298 299 302 305 307 308 310 312 313 314 314 315 315 314 314 315 316 316 317 317 316 316 316 314 314 315 316 316 316 315 312 311 310
276 278 279 282 283 284 289 289 290 293 295 297 299 301 304 306 307 308 311 313 315 314 314 314 313 312 313 313 314 315 315 315 315 316 315 315 314 315 314 314 313 311 310 309
273 275 276 278 281 284 287 288 291 293 295 297 299 300 301 304 306 309 312 314 315 314 314 315 315 313 313 313 314 315 314 314 315 317 317 316 314 314 313 313 312 311 310 310
273 274 275 277 279 282 284 286 290 292 295 297 299 300 302 304 306 309 311 313 314 315 315 315 316 314 313 314 315 315 314 314 316 316 316 315 314 312 310 309 310 311 309 309
273 274 274 275 277 280 283 286 289 291 293 296 298 300 301 302 304 307 309 311 313 313 314 314 315 313 311 312 313 312 312 313 314 315 314 313 313 309 307 307 308 308 307 307
271 272 273 276 277 279 282 285 287 289 292 295 297 299 300 301 302 305 306 309 310 311 311 312 312 312 313 313 312 311 311 311 313 314 313 313 312 310 308 308 308 307 308 309
Height
5875 5877 5878 5878 5879 5880 5881 5880 5880 5879 5876 5875 5874 5872 5870 5869 5867 5865 5863 5860 5858 5855 5852 5849 5846 5844 5841 5838 5836 5833 5830 5827 5825 5822 5819 5816 5813 5811 5808 5805 5803 5802 5800 5799
5873 5874 5875 5875 5876 5876 5876 5877 5876 5875 5873 5872 5871 5869 5867 5865 5863 5861 5859 5857 5854 5851 5848 5845 5842 5839 5836 5833 5831 5828 5825 5823 5820 5816 5813 5810 5807 5804 5802 5799 5797 5795 5793 5792
5871 5872 5872 5872 5873 5873 5873 5873 5873 5872 5870 5868 5867 5866 5864 5862 5860 5858 5855 5853 5850 5847 5844 5841 5838 5834 5831 5829 5826 5823 5820 5817 5814 5810 5807 5804 5800 5798 5795 5792 5790 5788 5786 5785
5868 5868 5869 5870 5870 5870 5871 5870 5869 5868 5867 5866 5865 5864 5861 5859 5856 5854 5852 5849 5846 5843 5840 5836 5833 5830 5827 5824 5821 5818 5815 5811 5808 5804 5801 5797 5793 5791 5788 5785 5783 5781 5779 5777
5865 5865 5866 5867 5867 5867 5868 5867 5866 5865 5864 5863 5862 5861 5859 5855 5853 5851 5848 5845 5842 5839 5836 5832 5829 5826 5822 5819 5815 5812 5808 5805 5802 5798 5794 5791 5787 5784 5781 5779 5777 5774 5772 5770
5863 5863 5864 5864 5864 5864 5864 5864 5863 5862 5861 5860 5859 5858 5856 5853 5850 5847 5844 5841 5838 5835 5831 5828 5825 5821 5817 5814 5810 5806 5802 5799 5795 5791 5788 5785 5782 5778 5775 5773 5770 5768 5766 5764
5860 5861 5861 5861 5861 5861 5861 5861 5861 5861 5860 5859 5856 5854 5853 5849 5846 5843 5840 5837 5834 5830 5827 5824 5820 5817 5813 5809 5805 5801 5797 5793 5789 5786 5782 5779 5776 5772 5769 5766 5764 5762 5760 5758
5859 5860 5859 5859 5859 5859 5858 5859 5860 5859 5858 5857 5852 5850 5849 5845 5842 5839 5836 5833 5830 5826 5823 5819 5816 5812 5808 5803 5800 5796 5791 5787 5783 5780 5777 5773 5770 5766 5763 5760 5758 5756 5754 5752
5857 5858 5856 5856 5856 5856 5855 5855 5856 5855 5853 5852 5849 5846 5844 5841 5838 5835 5832 5829 5825 5822 5819 5815 5811 5807 5803 5798 5794 5790 5786 5782 5778 5775 5771 5768 5764 5761 5758 5755 5752 5750 5748 5746
5853 5854 5853 5853 5853 5852 5853 5852 5851 5850 5849 5848 5847 5843 5841 5836 5834 5831 5828 5824 5821 5817 5814 5810 5806 5802 5798 5794 5790 5785 5780 5777 5773 5769 5766 5762 5759 5756 5752 5750 5747 5744 5742 5740
5850 5851 5851 5850 5849 5849 5849 5848 5847 5847 5845 5844 5843 5843 5836 5833 5830 5827 5823 5819 5816 5812 5809 5805 5801 5797 5793 5789 5784 5780 5776 5772 5768 5765 5761 5757 5754 5751 5747 5744 5741 5739 5736 5733
5847 5848 5847 5847 5846 5846 5845 5844 5843 5843 5841 5839 5837 5839 5831 5829 5826 5822 5818 5815 5811 5807 5804 5800 5796 5792 5788 5784 5780 5775 5771 5767 5763 5759 5756 5752 5749 5746 5742 5739 5736 5733 5730 5728
5844 5844 5844 5844 5844 5842 5841 5840 5839 5838 5836 5835 5833 5834 5827 5824 5821 5817 5814 5810 5806 5803 5800 5796 5792 5788 5783 5779 5775 5770 5766 5762 5758 5754 5750 5747 5744 5740 5737 5734 5731 5728 5725 5723
5841 5841 5842 5842 5841 5838 5837 5836 5834 5834 5832 5831 5829 5826 5823 5819 5816 5812 5809 5805 5802 5798 5794 5791 5787 5783 5779 5774 5770 5765 5761 5756 5752 5749 5745 5742 5738 5735 5732 5729 5726 5723 5720 5718
5837 5837 5837 5836 5835 5834 5833 5832 5830 5829 5827 5826 5824 5821 5818 5814 5811 5807 5804 5800 5797 5793 5790 5786 5782 5778 5774 5769 5765 5761 5756 5751 5747 5743 5740 5737 5733 5730 5727 5724 5721 5718 5715 5713
5833 5833 5833 5832 5831 5830 5828 5827 5826 5824 5822 5820 5818 5816 5812 5809 5806 5803 5799 5796 5792 5788 5785 5781 5777 5773 5769 5764 5760 5756 5751 5747 5743 5739 5735 5732 5729 5726 5723 5719 5716 5713 5710 5707
5829 5829 5829 5828 5827 5826 5824 5823 5821 5819 5817 5815 5813 5811 5807 5805 5801 5798 5795 5791 5787 5783 5780 5776 5772 5768 5764 5760 5755 5751 5746 5742 5738 5735 5731 5728 5725 5722 5718 5715 5711 5708 5705 5702
5825 5825 5824 5823 5823 5821 5821 5818 5816 5814 5812 5810 5808 5805 5803 5800 5796 5793 5790 5786 5783 5779 5775 5771 5767 5763 5759 5755 5750 5746 5742 5738 5734 5731 5727 5724 5721 5717 5714 5710 5707 5704 5701 5698
5821 5820 5819 5818 5817 5816 5815 5813 5811 5809 5807 5805 5803 5800 5797 5794 5791 5788 5785 5781 5778 5774 5770 5766 5762 5758 5754 5750 5746 5742 5738 5734 5730 5727 5723 5720 5716 5713 5709 5706 5702 5699 5696 5693
5815 5815 5814 5813 5812 5811 5810 5807 5805 5805 5802 5800 5797 5795 5792 5789 5787 5784 5780 5776 5772 5769 5765 5760 5757 5753 5749 5745 5741 5738 5734 5730 5726 5723 5719 5716 5712 5708 5705 5701 5697 5694 5691 5688
5810 5809 5808 5807 5806 5805 5803 5802 5801 5800 5798 5794 5791 5789 5787 5784 5781 5778 5774 5771 5767 5763 5759 5755 5752 5748 5744 5741 5737 5733 5729 5726 5722 5718 5715 5711 5707 5703 5700 5696 5693 5689 5686 5684
5804 5803 5802 5802 5801 5800 5797 5796 5795 5793 5790 5788 5785 5783 5781 5778 5775 5772 5768 5765 5761 5758 5754 5750 5746 5743 5739 5736 5732 5728 5725 5721 5717 5714 5710 5706 5703 5699 5695 5692 5688 5685 5682 5680
5797 5798 5796 5796 5796 5793 5791 5789 5788 5786 5784 5782 5780 5777 5775 5772 5769 5766 5763 5759 5756 5752 5749 5745 5741 5737 5734 5730 5727 5724 5720 5716 5712 5709 5705 5701 5698 5694 5691 5687 5684 5681 5678 5676
5790 5790 5789 5788 5787 5786 5785 5783 5781 5780 5777 5775 5773 5771 5768 5766 5763 5760 5757 5754 5751 5747 5743 5740 5736 5732 5729 5726 5722 5719 5715 5711 5708 5704 5700 5696 5693 5689 5686 5683 5680 5677 5674 5671
5783 5782 5782 5781 5780 5779 5778 5776 5775 5773 5771 5769 5767 5764 5762 5760 5757 5754 5751 5748 5745 5742 5738 5735 5731 5728 5724 5721 5717 5714 5710 5706 5703 5699 5695 5691 5688 5684 5682 5679 5676 5673 5670 5667
5775 5775 5775 5774 5773 5772 5771 5769 5768 5766 5765 5763 5761 5758 5756 5754 5751 5748 5745 5742 5739 5736 5733 5729 5726 5722 5719 5715 5712 5708 5705 5701 5697 5693 5689 5686 5683 5680 5677 5675 5672 5668 5666 5662